MST,Max TemperatureF,Mean TemperatureF,Min TemperatureF,Max Dew PointF,MeanDew PointF,Min DewpointF,Max Humidity, Mean Humidity, Min Humidity, Max Sea Level PressureIn, Mean Sea Level PressureIn, Min Sea Level PressureIn, Max VisibilityMiles, Mean VisibilityMiles, Min VisibilityMiles, Max Wind SpeedMPH, Mean Wind SpeedMPH, Max Gust SpeedMPH,PrecipitationIn, CloudCover, Events, WindDirDegrees
2012-11-1,74,47,20,16,6,-1,44,24,9,30.26,30.19,30.12,10,10,10,16,4,25,0.00,0,,326
2012-11-2,72,48,23,18,10,-3,40,25,12,30.18,30.13,30.08,10,10,5,20,5,25,0.00,0,,328
2012-11-3,65,48,32,27,22,11,56,38,23,30.29,30.24,30.17,10,10,10,9,4,,0.00,0,,167
2012-11-4,69,44,18,20,12,4,73,35,9,30.33,30.29,30.23,10,10,4,22,6,28,0.00,0,,337
2012-11-5,69,46,23,20,12,2,41,28,13,30.40,30.32,30.25,10,10,7,9,3,21,0.00,0,,331
2012-11-6,71,50,28,23,17,10,57,33,14,30.37,30.31,30.26,10,10,10,9,4,,0.00,0,,356
2012-11-7,74,48,22,21,12,6,55,30,9,30.32,30.22,30.14,10,10,7,18,4,22,0.00,0,,292
2012-11-8,70,48,25,26,17,3,54,32,16,30.16,30.09,30.03,10,10,7,21,4,26,0.00,0,,203
2012-11-9,64,46,29,46,32,15,91,57,29,30.05,29.98,29.89,10,10,7,26,6,34,0.01,3,Rain,217
2012-11-10,53,42,31,39,29,17,91,60,43,29.90,29.82,29.76,10,10,5,36,18,46,0.00,4,Rain-Snow-Thunderstorm,247
2012-11-11,38,30,21,26,11,-2,91,50,19,30.34,30.10,29.90,10,10,0,25,16,34,0.00,2,Snow,288
2012-11-12,50,32,13,4,-1,-4,55,30,12,30.44,30.37,30.32,10,10,10,17,8,21,0.00,0,,337
2012-11-13,57,30,4,6,1,-8,61,33,12,30.34,30.30,30.22,10,10,10,15,5,21,0.00,0,,358
2012-11-14,62,36,10,10,3,-5,59,33,11,30.40,30.31,30.23,10,10,7,9,4,,0.00,0,,16
2012-11-15,60,36,13,15,4,-4,51,30,9,30.43,30.32,30.25,10,10,7,14,5,17,0.00,0,,44
2012-11-16,60,42,23,23,14,7,53,38,18,30.43,30.33,30.25,10,10,10,12,3,,0.00,2,,148
2012-11-17,59,38,16,27,16,4,58,42,25,30.31,30.25,30.20,10,10,10,10,3,,0.00,0,,168
2012-11-18,59,42,25,40,29,18,86,56,32,30.27,30.20,30.15,10,10,10,21,7,25,0.00,3,,268
2012-11-19,61,41,21,32,21,9,96,55,15,30.35,30.31,30.26,10,10,4,17,4,25,0.00,0,,327
2012-11-20,65,39,13,20,9,1,68,34,10,30.39,30.33,30.26,10,10,10,9,3,,0.00,0,,356
2012-11-21,64,40,16,32,16,-2,74,44,24,30.32,30.24,30.16,10,10,10,15,3,,0.00,0,,2
2012-11-22,61,40,18,25,18,10,85,48,19,30.43,30.24,30.16,10,10,10,17,4,23,0.00,0,,5
2012-11-23,50,34,16,25,15,1,84,49,23,30.60,30.50,30.43,10,10,10,13,4,17,0.00,0,,163
2012-11-24,64,37,10,21,9,-4,59,37,14,30.43,30.27,30.14,10,10,10,17,5,24,0.00,0,,324
2012-11-25,64,41,18,13,10,5,59,34,13,30.14,30.07,30.00,10,10,10,18,6,25,0.00,0,,341
2012-11-26,61,40,18,20,13,5,78,41,16,30.41,30.20,30.05,10,10,10,14,6,18,0.00,0,,28
2012-11-27,61,34,8,23,13,4,86,49,16,30.43,30.36,30.31,10,10,10,12,3,18,0.00,0,,331
2012-11-28,63,38,12,17,10,2,68,39,15,30.39,30.32,30.25,10,10,10,15,5,21,0.00,0,,352
2012-11-29,62,40,18,23,16,3,63,40,18,30.26,30.23,30.19,10,10,10,20,5,25,0.00,0,,309
2012-11-30,63,43,23,29,20,13,72,46,17,30.26,30.21,30.15,10,10,10,14,3,22,0.00,0,,280